Voltar ao catálogo

SPACEMOBILE-004

AtivoComunicaçõesVLEO
NORAD 61049·PAYLOAD·🇺🇸 United States

Lançado Sep 12, 2024 de Cape Canaveral Space Force Station

Loading…

Próximas Passagens (próximas 24 horas)

TLE

AtualizadoSource: CelesTrak SupGP

Época: Sep 15, 2026, 05:11 UTC

1 61049C 24163E   26258.21617369 -.00270810  00000+0 -12202-1 0  2589
2 61049  52.9740 255.0028 0009094  58.0644 346.1874 15.20522604    11

Acompanhe SPACEMOBILE-004 em tempo real com AllMySat

Download on the App Store